This demonstration page uses our WeatherBlox Daily Observations layout. Learn more.

Left ArrowRight Arrow

38.80484, -77.04692

Hourly Observations for February 8, 2016

Temp ( °F °C ) Dew Point ( °F °C ) Humidity (%) Winds ( mph kmh ) Pressure ( in mb ) Visibility ( mi km ) Precip ( " mm )
12:52 am 00:52 Cloudy 38 3.3 24 -4.4 57 57 NNW 10 17 29.83 1010 10 16 0.00 0.00
1:52 am 01:52 Mostly Cloudy 38 3.3 23 -5 55 55 NNW 13 20 29.80 1009 10 16 0.00 0.00
2:52 am 02:52 Mostly Cloudy 37 2.8 22 -5.6 54 54 NNW 13 20 29.77 1008 10 16 0.00 0.00
3:52 am 03:52 Mostly Cloudy 36 2.2 22 -5.6 57 57 NNW 10 17 29.76 1008 10 16 0.00 0.00
4:52 am 04:52 Mostly Cloudy 36 2.2 22 -5.6 57 57 NNW 13 20 29.78 1009 10 16 0.00 0.00
5:52 am 05:52 Mostly Cloudy 35 1.7 22 -5.6 59 59 NNE 7 11 29.79 1009 10 16 0.00 0.00
6:52 am 06:52 Mostly Cloudy 35 1.7 21 -6.1 57 57 NNW 10 17 29.81 1010 10 16 0.00 0.00
7:52 am 07:52 Mostly Cloudy 36 2.2 22 -5.6 57 57 NNW 8 13 29.82 1010 10 16 0.00 0.00
8:52 am 08:52 Mostly Cloudy 40 4.4 22 -5.6 49 49 NE 13 20 29.82 1010 10 16 0.00 0.00
9:52 am 09:52 Mostly Cloudy 42 5.6 26 -3.3 53 53 ENE 10 17 29.80 1009 10 16 0.00 0.00
10:52 am 10:52 Mostly Cloudy 44 6.7 28 -2.2 53 53 E 7 11 29.80 1009 10 16 0.00 0.00
11:52 am 11:52 Mostly Cloudy 44 6.7 28 -2.2 53 53 Calm 29.75 1008 10 16 0.00 0.00
12:52 pm 12:52 Mostly Cloudy 45 7.2 29 -1.7 54 54 VRB 3 6 29.72 1007 10 16 0.00 0.00
1:52 pm 13:52 Cloudy 46 7.8 29 -1.7 51 51 SSE 7 11 29.70 1006 10 16 0.00 0.00
2:52 pm 14:52 Cloudy 46 7.8 29 -1.7 51 51 S 5 7 29.70 1006 10 16 0.00 0.00
3:52 pm 15:52 Cloudy 46 7.8 29 -1.7 51 51 SSW 8 13 29.69 1006 10 16 0.00 0.00
4:52 pm 16:52 Cloudy 45 7.2 29 -1.7 54 54 S 6 9 29.69 1006 10 16 0.00 0.00
5:52 pm 17:52 Cloudy 43 6.1 31 -0.6 63 63 ESE 12 19 29.70 1006 10 16 0.00 0.00
6:52 pm 18:52 Cloudy 43 6.1 31 -0.6 63 63 SSE 9 15 29.72 1006 10 16 0.00 0.00
7:11 pm 19:11 Cloudy with Light Rain 42 5.6 31 -0.6 65 65 SSE 9 15 29.71 1006 10 16 0.00 0.03
7:52 pm 19:52 Cloudy with Light Rain 41 5 33 0.6 73 73 S 14 22 29.72 1006 10 16 0.00 0.03
8:28 pm 20:28 Cloudy with Light Rain 41 5 34 1 76 76 SSE 8 13 29.71 1006 10 16 0.00 0.00
8:32 pm 20:32 Cloudy with Light Rain 39 4 34 1 81 81 SE 6 9 29.71 1006 10 16 0.00 0.00
8:48 pm 20:48 Cloudy 39 4 34 1 81 81 SSE 7 11 29.71 1006 10 16 0.00 0.00
8:52 pm 20:52 Cloudy 40 4.4 33 0.6 77 77 SSE 8 13 29.70 1006 10 16 0.00 0.03
9:52 pm 21:52 Cloudy with Light Rain 39 3.9 34 1.1 82 82 SSE 6 9 29.70 1006 10 16 0.01 0.25
10:47 pm 22:47 Cloudy with Light Rain 39 4 34 1 81 81 SSE 7 11 29.68 1005 10 16 0.00 0.03
10:52 pm 22:52 Cloudy with Light Rain 39 3.9 34 1.1 82 82 SSE 7 11 29.68 1005 10 16 0.00 0.03
11:23 pm 23:23 Cloudy with Light Rain 39 3.9 34 1.1 82 82 SSE 7 11 29.68 1005 10 16 0.00 0.03
11:52 pm 23:52 Cloudy 39 3.9 34 1.1 82 82 SSE 7 11 29.66 1005 10 16 0.00 0.03

Powered by AerisWeather